目前日期文章:201705 (89)

瀏覽方式: 標題列表 簡短摘要
發表時間 文章標題 人氣 留言
2017-05-30 【人氣商品】Beats Powerbeats3 Wireless 入耳式耳機-紅 MNLY2ZP-A【先睹為快】 (0) (0)
2017-05-30 【本週熱銷】【iPhone 6s】OtterBox Symmetry 防摔殼-紫白 77-52295【搶購】 (0) (0)
2017-05-30 【THOMSON湯姆笙】 微電腦液晶觸控溫感DC霧化扇(TM-SAF09N)[TM-SAF09N].【限時下殺】 (0) (0)
2017-05-28 【人氣商品】CBINC 柔光罩 For CANON 270EX 閃燈-白 For CANON 270EX【先睹為快】 (0) (0)
2017-05-28 【好物推薦】-美人仕女SPA時尚會館 - 161748【先睹為快】 (0) (0)
2017-05-28 【人氣商品】BENRO 67mm SD ND 1000 減光鏡 12層奈米防反射鍍膜【先睹為快】 (0) (0)
2017-05-27 雙重送【臺灣格力】4-6坪變頻冷暖分離式 GSDU-29HO-GSDU-29HI【情報】 (0) (0)
2017-05-27 【GE 奇異】淨水器 ATS2500[ATS2500].【部落客票選】 (0) (0)
2017-05-27 樹德 樂收FUN三層收納櫃 MB-5503 43.8x55x65.1cm【情報】 (0) (0)
2017-05-26 【GOMAGI】簡約工藝藍寶石防刮鏡面腕錶(男女適戴) 1入起 - 159739【好用】 (0) (0)
2017-05-26 【人氣商品】【海之醇】煙燻整尾北海中卷-熟凍大尾冰卷 5隻起 - 159258【下殺】 (0) (0)
2017-05-26 NZXT恩傑 Phantom 410小幻影電腦機殼(紅)[Phantom 410].【好康推薦】 (0) (0)
2017-05-25 Samsung Galaxy Tab S2 9.7 (T813 )八核心平板(32G-WiFi版)(白)[Tab S2 9.7(32G-WiFi) 白].【部落客票選】 (0) (0)
2017-05-25 【好物推薦】BENRO 77mm PD CPL-HD WMC 偏光鏡 12層奈米高透光鍍膜【下殺】 (0) (0)
2017-05-25 QNAP威聯通 TS-228 2Bay網路儲存伺服器.【限時下殺】 (0) (0)
2017-05-24 Panasonic國際牌 6公升清淨除濕機 F-Y12CW【經驗分享】 (0) (0)
2017-05-24 PRO特選超厚棚板附托架-蘋果木色W120【情報】 (0) (0)
2017-05-24 【本週熱銷】BRITA mypure U5 超微濾菌櫥下濾水系統 mypure U5【先睹為快】 (0) (0)
2017-05-23 Homelike 悅心1.4尺書櫃【居家幫手】 (0) (0)
2017-05-23 【德國百靈BRAUN】新5系列靈動貼面電鬍刀5090cc-送DOMO電茶壺 .【好康推薦】 (0) (0)
2017-05-23 Homelike 席歐3.5尺掀床組+獨立筒床墊-單人(胡桃木紋)【分享文】 (0) (0)
2017-05-23 【Samsung】Gear IconX無線藍牙運動耳機-搖滾藍[Gear IconX-藍].【部落客票選】 (0) (0)
2017-05-23 【人氣商品】EPSON 141 黃色墨水匣 C13T141450【好用】 (0) (0)
2017-05-23 ★加碼贈好禮★【LG樂金】17kg直立式變頻洗衣機WT-D176SG【居家幫手】 (0) (0)
2017-05-21 【人氣商品】多功能耐高溫密封雙杯蓋玻璃梅森杯700ml 1入起 - 159734【搶購】 (0) (0)
2017-05-21 聲寶460公升二門變頻冰箱(炫麥金) SR-N46D(Y2)【燦坤快3】 (0) (0)
2017-05-21 【FULL POWER】idol K8 PLUS 個人行動KTV 玫瑰金.【熱門搶購】 (0) (0)
2017-05-19 文鎧F6防衝突遊戲鍵盤 F6【熱門搶購】 (0) (0)
2017-05-19 莊頭北 TR-5697 Turbo馬達80cm隱藏式排油煙機.【熱門搶購】 (0) (0)
2017-05-19 JOHO 萬用閃靈充.【部落客票選】 (0) (0)
2017-05-18 HP 400G3MT-G4400 商用電腦.【限時下殺】 (0) (0)
2017-05-18 SIROCA自動研磨咖啡機-金色 SC-A1210CB【好康推薦】 (0) (0)
2017-05-18 亮公主美甲美睫 - 157813【好康推薦】 (0) (0)
2017-05-17 Mio MiVue 688 GPS行車記錄器 MiVue 688【限時下殺】 (0) (0)
2017-05-17 宥青云美妍坊 - 154474【限時下殺】 (0) (0)
2017-05-17 Manfrotto 開拓者單眼槍套包-酒紅 NX Holster DSLR【限時下殺】 (0) (0)
2017-05-16 GARMIN fenix 3 HR腕式心率戶外GPS腕錶 fenix 3 HR【限時下殺】 (0) (0)
2017-05-16 【美國EULEVEN】有樂紛 真空食物封口機(附裁刀)SYJ-6021 [SYJ-6021].【好康推薦】 (0) (0)
2017-05-16 【展示機】飛利浦沙龍級陶瓷直髮器 HP8300【熱門搶購】 (0) (0)
2017-05-15 虎牌10人份微電腦電子鍋 JBV-S18R【好康推薦】 (0) (0)
2017-05-15 ADATA 威剛20W T5 LED層板燈4呎-自然光 20W T5【熱門搶購】 (0) (0)
2017-05-15 收藏家 專業型電子防潮櫃 940公升 MD-2000【限時下殺】 (0) (0)
2017-05-14 THOMSON 精密陶瓷耳機 TM-TAEH03M[TM-TAEH03M].【限時下殺】 (0) (0)
2017-05-14 台灣三洋 528公升節能三門變頻冰箱 SR-B528CV【好康推薦】 (0) (0)
2017-05-14 SAMPO聲寶語音報號來電顯示有線電話HT-B1102L(銀色).【熱門搶購】 (0) (0)
2017-05-13 SAMPO 單切5座3孔6尺USB延長線 EL-U15R6U3【熱門搶購】 (0) (0)
2017-05-13 ★好禮6選1★至4-30止【HITACHI 日立】窗型單冷空調(左吹) RA-28TK[RA-28TK].【熱門搶購】 (0) (0)
2017-05-13 Polar PHS-9013頭戴式耳機麥克風 PHS-9013BK【熱門搶購】 (0) (0)
2017-05-12 【Kolin 歌林】日式按摩墊_象牙白KMA-R11.【熱門搶購】 (0) (0)
2017-05-12 【MITSUBISHI三菱】日本原裝多功能烘被機 AD-E203TW[AD-E203TW].【部落客票選】 (0) (0)
1 2